| time (UTC) | temp C | wind direction | speed KPH | gust KPH | rain 1hr cm | rain 24hr cm | rain mn cm | humidity % | barometer mb |
| 20260505140133 | 10 | 190 | 14.5 | 30.6 | 0.00 | 0.00 | 0.00 | 65 | 1007.9 |
| 20260505130133 | 12 | 126 | 9.7 | 33.8 | 0.00 | 0.00 | 0.00 | 59 | 1007.0 |
| 20260505125037 | 12 | 196 | 9.7 | 19.3 | 0.00 | 0.00 | 0.00 | 56 | 1007.0 |
| 20260505124131 | 13 | 161 | 8.0 | 17.7 | 0.00 | 0.00 | 0.00 | 55 | 1006.9 |
| 20260505123629 | 13 | 182 | 6.4 | 16.1 | 0.00 | 0.00 | 0.00 | 54 | 1006.8 |
| 20260505123128 | 13 | 165 | 4.8 | 14.5 | 0.00 | 0.00 | 0.00 | 50 | 1006.6 |
| 20260505122631 | 13 | 105 | 6.4 | 14.5 | 0.00 | 0.00 | 0.00 | 50 | 1006.5 |
| 20260505122126 | 13 | 138 | 8.0 | 19.3 | 0.00 | 0.00 | 0.00 | 50 | 1006.5 |
| 20260505122049 | 13 | 238 | 8.0 | 19.3 | 0.00 | 0.00 | 0.00 | 50 | 1006.5 |
| 20260505121131 | 13 | 184 | 8.0 | 16.1 | 0.00 | 0.00 | 0.00 | 51 | 1006.6 |
| 20260505120938 | 13 | 161 | 9.7 | 27.4 | 0.00 | 0.00 | 0.00 | 50 | 1006.6 |
| 20260505120802 | 13 | 185 | 8.0 | 16.1 | 0.00 | 0.00 | 0.00 | 51 | 1006.6 |
| 20260505115622 | 13 | 163 | 12.9 | 32.2 | 0.00 | 0.00 | 0.00 | 50 | 1006.5 |
| 20260505115126 | 13 | 146 | 14.5 | 32.2 | 0.00 | 0.00 | 0.00 | 52 | 1006.5 |
| 20260505114625 | 13 | 148 | 12.9 | 30.6 | 0.00 | 0.00 | 0.00 | 52 | 1006.6 |
| 20260505114123 | 13 | 145 | 11.3 | 22.5 | 0.00 | 0.00 | 0.00 | 51 | 1006.5 |
| 20260505113625 | 13 | 196 | 11.3 | 22.5 | 0.00 | 0.00 | 0.00 | 52 | 1006.5 |
| 20260505113216 | 13 | 144 | 6.4 | 17.7 | 0.00 | 0.00 | 0.00 | 53 | 1006.5 |
| 20260505113147 | 13 | 145 | 11.3 | 22.5 | 0.00 | 0.00 | 0.00 | 52 | 1006.6 |
| 20260505112120 | 13 | 123 | 6.4 | 12.9 | 0.00 | 0.00 | 0.00 | 53 | 1006.5 |
| 20260505111621 | 13 | 225 | 8.0 | 16.1 | 0.00 | 0.00 | 0.00 | 53 | 1006.5 |
| 20260505111319 | 13 | 212 | 9.7 | 19.3 | 0.00 | 0.00 | 0.00 | 53 | 1006.5 |
| 20260505111152 | 13 | 172 | 8.0 | 19.3 | 0.00 | 0.00 | 0.00 | 53 | 1006.5 |
| 20260505110117 | 13 | 144 | 8.0 | 19.3 | 0.00 | 0.00 | 0.00 | 53 | 1006.5 |
| 20260505102143 | 13 | 193 | 6.4 | 14.5 | 0.00 | 0.00 | 0.00 | 51 | 1006.5 |
| 20260505101104 | 13 | 175 | 4.8 | 11.3 | 0.00 | 0.00 | 0.00 | 52 | 1006.5 |
| 20260505100605 | 13 | 212 | 4.8 | 9.7 | 0.00 | 0.00 | 0.00 | 52 | 1006.5 |
| 20260505095603 | 13 | 155 | 6.4 | 17.7 | 0.00 | 0.00 | 0.00 | 53 | 1006.6 |
| 20260505095102 | 13 | 226 | 4.8 | 17.7 | 0.00 | 0.00 | 0.00 | 52 | 1006.8 |
| 20260505094609 | 13 | 210 | 3.2 | 9.7 | 0.00 | 0.00 | 0.00 | 52 | 1006.8 |
| 20260505094108 | 13 | 178 | 1.6 | 8.0 | 0.00 | 0.00 | 0.00 | 52 | 1006.9 |
| 20260505093605 | 13 | 152 | 1.6 | 4.8 | 0.00 | 0.00 | 0.00 | 54 | 1006.8 |
| 20260505093158 | 13 | 152 | 3.2 | 8.0 | 0.00 | 0.00 | 0.00 | 55 | 1006.9 |
| 20260505093114 | 13 | 152 | 1.6 | 8.0 | 0.00 | 0.00 | 0.00 | 55 | 1006.8 |
| 20260505092105 | 13 | 152 | 3.2 | 8.0 | 0.00 | 0.00 | 0.00 | 55 | 1006.9 |
| 20260505091602 | 13 | 152 | 3.2 | 8.0 | 0.00 | 0.00 | 0.00 | 55 | 1006.9 |
| 20260505091137 | 14 | 152 | 4.8 | 9.7 | 0.00 | 0.00 | 0.00 | 54 | 1006.9 |
| 20260505091111 | 14 | 152 | 3.2 | 9.7 | 0.00 | 0.00 | 0.00 | 55 | 1006.9 |
| 20260505090026 | 14 | 120 | 8.0 | 16.1 | 0.00 | 0.00 | 0.00 | 52 | 1006.9 |
| 20260505085109 | 14 | 182 | 6.4 | 16.1 | 0.00 | 0.00 | 0.00 | 50 | 1006.9 |
| 20260505084613 | 14 | 167 | 8.0 | 20.9 | 0.00 | 0.00 | 0.00 | 50 | 1007.0 |
| 20260505084117 | 14 | 212 | 9.7 | 22.5 | 0.00 | 0.00 | 0.00 | 49 | 1006.9 |
| 20260505083612 | 14 | 202 | 9.7 | 22.5 | 0.00 | 0.00 | 0.00 | 47 | 1006.9 |
| 20260505083110 | 14 | 151 | 9.7 | 22.5 | 0.00 | 0.00 | 0.00 | 47 | 1006.9 |
| 20260505082955 | 14 | 200 | 11.3 | 22.5 | 0.00 | 0.00 | 0.00 | 47 | 1006.9 |
| 20260505082117 | 14 | 144 | 11.3 | 20.9 | 0.00 | 0.00 | 0.00 | 48 | 1006.9 |
| 20260505081607 | 14 | 150 | 12.9 | 25.7 | 0.00 | 0.00 | 0.00 | 48 | 1006.9 |
| 20260505081101 | 14 | 185 | 12.9 | 27.4 | 0.00 | 0.00 | 0.00 | 48 | 1006.9 |
| 20260505080603 | 14 | 164 | 12.9 | 27.4 | 0.00 | 0.00 | 0.00 | 48 | 1006.8 |
| 20260505080104 | 14 | 201 | 11.3 | 25.7 | 0.00 | 0.00 | 0.00 | 48 | 1006.9 |
| 20260505075601 | 14 | 216 | 12.9 | 25.7 | 0.00 | 0.00 | 0.00 | 48 | 1006.9 |
| 20260505075054 | 14 | 138 | 14.5 | 29.0 | 0.00 | 0.00 | 0.00 | 48 | 1006.9 |
| 20260505074550 | 14 | 130 | 12.9 | 29.0 | 0.00 | 0.00 | 0.00 | 49 | 1006.8 |
| 20260505074049 | 14 | 218 | 11.3 | 25.7 | 0.00 | 0.00 | 0.00 | 50 | 1006.8 |
| 20260505073548 | 14 | 203 | 11.3 | 29.0 | 0.00 | 0.00 | 0.00 | 50 | 1006.8 |
| 20260505073045 | 14 | 178 | 14.5 | 33.8 | 0.00 | 0.00 | 0.00 | 51 | 1006.8 |
| 20260505072547 | 14 | 150 | 16.1 | 37.0 | 0.00 | 0.00 | 0.00 | 52 | 1006.6 |
| 20260505072034 | 13 | 133 | 16.1 | 37.0 | 0.00 | 0.00 | 0.00 | 54 | 1006.6 |
| 20260505071540 | 13 | 143 | 12.9 | 30.6 | 0.00 | 0.00 | 0.00 | 56 | 1006.6 |
| 20260505071032 | 13 | 225 | 12.9 | 35.4 | 0.00 | 0.00 | 0.00 | 58 | 1006.6 |
| 20260505070918 | 13 | 215 | 16.1 | 35.4 | 0.00 | 0.00 | 0.00 | 62 | 1006.6 |
| 20260505070034 | 13 | 223 | 17.7 | 38.6 | 0.00 | 0.00 | 0.00 | 63 | 1006.6 |
| 20260505065538 | 13 | 233 | 16.1 | 38.6 | 0.00 | 0.00 | 0.00 | 64 | 1006.9 |
| 20260505065037 | 13 | 164 | 16.1 | 35.4 | 0.00 | 0.00 | 0.00 | 64 | 1006.9 |
| 20260505064937 | 13 | 212 | 16.1 | 35.4 | 0.00 | 0.00 | 0.00 | 64 | 1007.0 |
| 20260505064921 | 13 | 160 | 12.9 | 32.2 | 0.00 | 0.00 | 0.00 | 64 | 1007.1 |
| 20260505063532 | 13 | 204 | 12.9 | 29.0 | 0.00 | 0.00 | 0.00 | 65 | 1007.1 |
| 20260505063036 | 13 | 248 | 14.5 | 29.0 | 0.00 | 0.00 | 0.00 | 65 | 1007.1 |
| 20260505062530 | 13 | 214 | 16.1 | 29.0 | 0.00 | 0.00 | 0.00 | 66 | 1007.1 |
| 20260505062034 | 13 | 212 | 16.1 | 37.0 | 0.00 | 0.00 | 0.00 | 65 | 1007.2 |
| 20260505062026 | 13 | 193 | 16.1 | 37.0 | 0.00 | 0.00 | 0.00 | 66 | 1007.2 |
| 20260505061034 | 13 | 144 | 17.7 | 35.4 | 0.00 | 0.00 | 0.00 | 66 | 1007.1 |
| 20260505060530 | 13 | 161 | 16.1 | 38.6 | 0.00 | 0.00 | 0.00 | 66 | 1007.1 |
| 20260505060404 | 13 | 246 | 16.1 | 38.6 | 0.00 | 0.00 | 0.00 | 66 | 1007.1 |
| 20260505055529 | 13 | 188 | 19.3 | 37.0 | 0.00 | 0.00 | 0.00 | 65 | 1007.2 |
| 20260505055416 | 13 | 191 | 19.3 | 35.4 | 0.00 | 0.00 | 0.00 | 64 | 1007.2 |
| 20260505054529 | 13 | 212 | 16.1 | 40.2 | 0.00 | 0.00 | 0.00 | 63 | 1007.1 |
| 20260505054032 | 13 | 173 | 17.7 | 40.2 | 0.00 | 0.00 | 0.00 | 63 | 1007.2 |
| 20260505053529 | 13 | 228 | 19.3 | 37.0 | 0.00 | 0.00 | 0.00 | 62 | 1007.2 |
| 20260505053351 | 13 | 193 | 19.3 | 43.5 | 0.00 | 0.00 | 0.00 | 61 | 1007.2 |
| 20260505052919 | 13 | 140 | 19.3 | 43.5 | 0.00 | 0.00 | 0.00 | 61 | 1007.4 |
| 20260505052030 | 14 | 196 | 20.9 | 40.2 | 0.00 | 0.00 | 0.00 | 61 | 1007.3 |
| 20260505051530 | 14 | 184 | 17.7 | 40.2 | 0.00 | 0.00 | 0.00 | 59 | 1007.2 |
| 20260505051029 | 14 | 147 | 17.7 | 37.0 | 0.00 | 0.00 | 0.00 | 59 | 1007.1 |
| 20260505050602 | 14 | 200 | 20.9 | 43.5 | 0.00 | 0.00 | 0.00 | 59 | 1006.9 |
| 20260505050542 | 14 | 149 | 20.9 | 43.5 | 0.00 | 0.00 | 0.00 | 59 | 1006.9 |
| 20260505041531 | 16 | 208 | 17.7 | 37.0 | 0.00 | 0.00 | 0.00 | 53 | 1006.3 |
| 20260505041033 | 16 | 252 | 16.1 | 43.5 | 0.00 | 0.00 | 0.00 | 51 | 1006.2 |
| 20260505040529 | 16 | 223 | 14.5 | 43.5 | 0.00 | 0.00 | 0.00 | 50 | 1005.8 |
| 20260505040029 | 16 | 166 | 12.9 | 29.0 | 0.00 | 0.00 | 0.00 | 48 | 1005.8 |
| 20260505035529 | 16 | 239 | 11.3 | 22.5 | 0.00 | 0.00 | 0.00 | 47 | 1005.8 |
| 20260505035459 | 17 | 219 | 9.7 | 22.5 | 0.00 | 0.00 | 0.00 | 47 | 1005.8 |
| 20260505034526 | 17 | 212 | 11.3 | 30.6 | 0.00 | 0.00 | 0.00 | 46 | 1005.8 |
| 20260505034026 | 17 | 221 | 12.9 | 30.6 | 0.00 | 0.00 | 0.00 | 44 | 1005.6 |
| 20260505033528 | 17 | 252 | 12.9 | 25.7 | 0.00 | 0.00 | 0.00 | 41 | 1005.6 |
| 20260505033024 | 17 | 225 | 11.3 | 24.1 | 0.00 | 0.00 | 0.00 | 39 | 1005.5 |
| 20260505032527 | 17 | 197 | 11.3 | 20.9 | 0.00 | 0.00 | 0.00 | 39 | 1005.3 |
| 20260505032022 | 17 | 177 | 9.7 | 20.9 | 0.00 | 0.00 | 0.00 | 39 | 1005.3 |
| 20260505031526 | 17 | 210 | 9.7 | 20.9 | 0.00 | 0.00 | 0.00 | 39 | 1005.3 |
| 20260505031022 | 18 | 208 | 11.3 | 19.3 | 0.00 | 0.00 | 0.00 | 39 | 1005.1 |
| 20260505030521 | 18 | 223 | 11.3 | 27.4 | 0.00 | 0.00 | 0.00 | 39 | 1004.9 |
| 20260505030025 | 18 | 205 | 11.3 | 27.4 | 0.00 | 0.00 | 0.00 | 39 | 1004.9 |
| 20260505025518 | 18 | 201 | 11.3 | 20.9 | 0.00 | 0.00 | 0.00 | 39 | 1004.9 |
| 20260505025012 | 18 | 175 | 11.3 | 29.0 | 0.00 | 0.00 | 0.00 | 38 | 1004.9 |
| 20260505024509 | 18 | 174 | 11.3 | 29.0 | 0.00 | 0.00 | 0.00 | 36 | 1004.9 |
| 20260505024011 | 18 | 165 | 11.3 | 22.5 | 0.00 | 0.00 | 0.00 | 38 | 1004.8 |
| 20260505023512 | 18 | 171 | 9.7 | 19.3 | 0.00 | 0.00 | 0.00 | 38 | 1004.9 |
| 20260505023009 | 18 | 188 | 8.0 | 19.3 | 0.00 | 0.00 | 0.00 | 38 | 1004.9 |
| 20260505022508 | 18 | 183 | 8.0 | 19.3 | 0.00 | 0.00 | 0.00 | 37 | 1004.8 |
| 20260505022417 | 18 | 182 | 8.0 | 16.1 | 0.00 | 0.00 | 0.00 | 37 | 1004.8 |
| 20260505021508 | 18 | 219 | 8.0 | 14.5 | 0.00 | 0.00 | 0.00 | 36 | 1004.9 |
| 20260505021004 | 18 | 207 | 8.0 | 16.1 | 0.00 | 0.00 | 0.00 | 37 | 1004.7 |
| 20260505020505 | 18 | 226 | 6.4 | 16.1 | 0.00 | 0.00 | 0.00 | 36 | 1004.7 |
| 20260505020002 | 19 | 248 | 6.4 | 16.1 | 0.00 | 0.00 | 0.00 | 37 | 1004.7 |
| 20260505015504 | 19 | 194 | 8.0 | 17.7 | 0.00 | 0.00 | 0.00 | 36 | 1004.8 |
| 20260505015007 | 19 | 200 | 8.0 | 17.7 | 0.00 | 0.00 | 0.00 | 36 | 1004.7 |
| 20260505014504 | 19 | 157 | 8.0 | 17.7 | 0.00 | 0.00 | 0.00 | 36 | 1004.6 |
| 20260505014004 | 20 | 162 | 8.0 | 17.7 | 0.00 | 0.00 | 0.00 | 36 | 1004.7 |
| 20260505013505 | 20 | 207 | 8.0 | 17.7 | 0.00 | 0.00 | 0.00 | 35 | 1004.8 |
| 20260505013002 | 20 | 207 | 11.3 | 19.3 | 0.00 | 0.00 | 0.00 | 35 | 1004.8 |
| 20260505012505 | 20 | 211 | 11.3 | 22.5 | 0.00 | 0.00 | 0.00 | 35 | 1004.7 |
| 20260505012406 | 20 | 137 | 9.7 | 22.5 | 0.00 | 0.00 | 0.00 | 34 | 1004.7 |
| 20260505011504 | 20 | 172 | 8.0 | 19.3 | 0.00 | 0.00 | 0.00 | 34 | 1004.8 |
| 20260505011004 | 21 | 199 | 6.4 | 14.5 | 0.00 | 0.00 | 0.00 | 32 | 1004.8 |
| 20260505010504 | 21 | 219 | 6.4 | 12.9 | 0.00 | 0.00 | 0.00 | 30 | 1004.8 |
| 20260505010003 | 21 | 252 | 4.8 | 12.9 | 0.00 | 0.00 | 0.00 | 30 | 1004.8 |
| 20260505005502 | 21 | 234 | 6.4 | 11.3 | 0.00 | 0.00 | 0.00 | 31 | 1004.8 |
| 20260505005001 | 21 | 212 | 4.8 | 11.3 | 0.00 | 0.00 | 0.00 | 30 | 1004.8 |
| 20260505004502 | 21 | 213 | 4.8 | 11.3 | 0.00 | 0.00 | 0.00 | 31 | 1004.8 |
| 20260505004004 | 21 | 142 | 4.8 | 11.3 | 0.00 | 0.00 | 0.00 | 33 | 1004.8 |
| 20260505003941 | 21 | 231 | 4.8 | 12.9 | 0.00 | 0.00 | 0.00 | 31 | 1004.9 |
| 20260505003006 | 21 | 142 | 4.8 | 12.9 | 0.00 | 0.00 | 0.00 | 31 | 1004.8 |
| 20260505002505 | 21 | 143 | 4.8 | 14.5 | 0.00 | 0.00 | 0.00 | 33 | 1004.8 |
| 20260505002002 | 20 | 98 | 4.8 | 14.5 | 0.00 | 0.00 | 0.00 | 31 | 1004.9 |
| 20260505001504 | 20 | 59 | 3.2 | 11.3 | 0.00 | 0.00 | 0.00 | 32 | 1004.9 |
| 20260505001432 | 20 | 82 | 6.4 | 16.1 | 0.00 | 0.00 | 0.00 | 35 | 1005.0 |
| 20260505001207 | 20 | 132 | 3.2 | 11.3 | 0.00 | 0.00 | 0.00 | 35 | 1004.9 |
| 20260505000004 | 20 | 79 | 9.7 | 17.7 | 0.00 | 0.00 | 0.00 | 34 | 1005.0 |
| 20260504235504 | 20 | 117 | 11.3 | 22.5 | 0.00 | 0.00 | 0.00 | 35 | 1005.1 |
| 20260504234958 | 20 | 67 | 12.9 | 22.5 | 0.00 | 0.00 | 0.00 | 33 | 1005.1 |
| 20260504234456 | 20 | 80 | 12.9 | 24.1 | 0.00 | 0.00 | 0.00 | 34 | 1005.1 |
| 20260504233958 | 21 | 49 | 14.5 | 25.7 | 0.00 | 0.00 | 0.00 | 35 | 1005.1 |
| 20260504233456 | 20 | 74 | 16.1 | 29.0 | 0.00 | 0.00 | 0.00 | 34 | 1005.1 |
| 20260504232958 | 20 | 63 | 17.7 | 32.2 | 0.00 | 0.00 | 0.00 | 34 | 1005.3 |
| 20260504232456 | 20 | 71 | 17.7 | 32.2 | 0.00 | 0.00 | 0.00 | 36 | 1005.4 |
| 20260504232418 | 20 | 36 | 17.7 | 29.0 | 0.00 | 0.00 | 0.00 | 36 | 1005.3 |
| 20260504231456 | 20 | 92 | 16.1 | 38.6 | 0.00 | 0.00 | 0.00 | 36 | 1005.3 |
| 20260504231015 | 20 | 59 | 22.5 | 40.2 | 0.00 | 0.00 | 0.00 | 35 | 1005.6 |
| 20260504231001 | 20 | 48 | 17.7 | 38.6 | 0.00 | 0.00 | 0.00 | 37 | 1005.4 |
| 20260504225956 | 20 | 41 | 20.9 | 40.2 | 0.00 | 0.00 | 0.00 | 35 | 1005.5 |
| 20260504225456 | 20 | 61 | 19.3 | 43.5 | 0.00 | 0.00 | 0.00 | 35 | 1005.5 |
| 20260504224956 | 20 | 97 | 19.3 | 43.5 | 0.00 | 0.00 | 0.00 | 35 | 1005.6 |
| 20260504224500 | 20 | 89 | 20.9 | 38.6 | 0.00 | 0.00 | 0.00 | 37 | 1005.6 |
| 20260504223958 | 20 | 65 | 22.5 | 49.9 | 0.00 | 0.00 | 0.00 | 36 | 1005.6 |
| 20260504223916 | 20 | 37 | 20.9 | 49.9 | 0.00 | 0.00 | 0.00 | 35 | 1005.7 |
| 20260504222957 | 20 | 84 | 20.9 | 43.5 | 0.00 | 0.00 | 0.00 | 38 | 1005.7 |
| 20260504222850 | 20 | 78 | 16.1 | 30.6 | 0.00 | 0.00 | 0.00 | 35 | 1005.7 |
| 20260504221942 | 20 | 86 | 11.3 | 22.5 | 0.00 | 0.00 | 0.00 | 37 | 1005.8 |
| 20260504221436 | 20 | 28 | 8.0 | 20.9 | 0.00 | 0.00 | 0.00 | 44 | 1005.8 |
| 20260504220935 | 20 | 83 | 8.0 | 20.9 | 0.00 | 0.00 | 0.00 | 41 | 1006.0 |
| 20260504220456 | 20 | 161 | 12.9 | 30.6 | 0.00 | 0.00 | 0.00 | 36 | 1006.4 |
| 20260504220439 | 19 | 57 | 12.9 | 30.6 | 0.00 | 0.00 | 0.00 | 42 | 1006.2 |
| 20260504215438 | 20 | 92 | 9.7 | 24.1 | 0.00 | 0.00 | 0.00 | 34 | 1006.2 |
| 20260504214938 | 20 | 117 | 9.7 | 19.3 | 0.00 | 0.00 | 0.00 | 34 | 1006.1 |
| 20260504214847 | 20 | 80 | 8.0 | 19.3 | 0.00 | 0.00 | 0.00 | 35 | 1006.1 |
| 20260504213957 | 20 | 99 | 4.8 | 16.1 | 0.00 | 0.00 | 0.00 | 37 | 1006.1 |
| 20260504213946 | 20 | 74 | 6.4 | 12.9 | 0.00 | 0.00 | 0.00 | 37 | 1006.2 |
| 20260504212939 | 20 | 251 | 9.7 | 27.4 | 0.00 | 0.00 | 0.00 | 36 | 1006.0 |
| 20260504212833 | 21 | 318 | 9.7 | 22.5 | 0.00 | 0.00 | 0.00 | 32 | 1005.8 |
| 20260504212611 | 20 | 291 | 12.9 | 27.4 | 0.00 | 0.00 | 0.00 | 34 | 1006.0 |
| 20260504211853 | 21 | 255 | 8.0 | 22.5 | 0.00 | 0.00 | 0.00 | 31 | 1005.8 |
| 20260504211403 | 21 | 99 | 8.0 | 17.7 | 0.00 | 0.00 | 0.00 | 28 | 1005.8 |
| 20260504211132 | 21 | 130 | 6.4 | 12.9 | 0.00 | 0.00 | 0.00 | 29 | 1005.8 |
| 20260504205937 | 22 | 94 | 9.7 | 17.7 | 0.00 | 0.00 | 0.00 | 27 | 1005.7 |
| 20260504205438 | 22 | 88 | 8.0 | 17.7 | 0.00 | 0.00 | 0.00 | 28 | 1005.7 |
| 20260504204936 | 22 | 74 | 4.8 | 17.7 | 0.00 | 0.00 | 0.00 | 28 | 1005.7 |
| 20260504204440 | 23 | 77 | 1.6 | 16.1 | 0.00 | 0.00 | 0.00 | 31 | 1005.8 |
| 20260504203937 | 23 | 323 | 1.6 | 4.8 | 0.00 | 0.00 | 0.00 | 32 | 1005.8 |
| 20260504203440 | 23 | 0 | 1.6 | 4.8 | 0.00 | 0.00 | 0.00 | 28 | 1005.7 |
| 20260504202935 | 23 | 275 | 1.6 | 9.7 | 0.00 | 0.00 | 0.00 | 30 | 1005.7 |
| 20260504202435 | 23 | 262 | 4.8 | 14.5 | 0.00 | 0.00 | 0.00 | 28 | 1005.7 |
| 20260504201938 | 23 | 244 | 6.4 | 14.5 | 0.00 | 0.00 | 0.00 | 28 | 1005.8 |
| 20260504201439 | 23 | 297 | 4.8 | 14.5 | 0.00 | 0.00 | 0.00 | 29 | 1005.8 |
| 20260504200935 | 23 | 281 | 3.2 | 11.3 | 0.00 | 0.00 | 0.00 | 35 | 1005.8 |
| 20260504200435 | 23 | 287 | 3.2 | 8.0 | 0.00 | 0.00 | 0.00 | 34 | 1006.0 |
| 20260504195940 | 23 | 263 | 3.2 | 14.5 | 0.00 | 0.00 | 0.00 | 29 | 1006.0 |
| 20260504195436 | 24 | 225 | 4.8 | 14.5 | 0.00 | 0.00 | 0.00 | 34 | 1006.0 |
| 20260504195333 | 24 | 262 | 6.4 | 12.9 | 0.00 | 0.00 | 0.00 | 28 | 1006.1 |
| 20260504194848 | 24 | 192 | 4.8 | 14.5 | 0.00 | 0.00 | 0.00 | 28 | 1006.1 |
| 20260504193933 | 25 | 239 | 3.2 | 14.5 | 0.00 | 0.00 | 0.00 | 28 | 1006.1 |
| 20260504193434 | 25 | 247 | 4.8 | 12.9 | 0.00 | 0.00 | 0.00 | 29 | 1006.2 |
| 20260504192930 | 24 | 250 | 6.4 | 20.9 | 0.00 | 0.00 | 0.00 | 28 | 1006.3 |
| 20260504192431 | 24 | 216 | 8.0 | 20.9 | 0.00 | 0.00 | 0.00 | 29 | 1006.3 |
| 20260504191933 | 24 | 241 | 6.4 | 16.1 | 0.00 | 0.00 | 0.00 | 27 | 1006.3 |
| 20260504191433 | 25 | 147 | 6.4 | 16.1 | 0.00 | 0.00 | 0.00 | 25 | 1006.3 |
| 20260504190929 | 25 | 246 | 8.0 | 19.3 | 0.00 | 0.00 | 0.00 | 27 | 1006.3 |
| 20260504190423 | 25 | 246 | 6.4 | 19.3 | 0.00 | 0.00 | 0.00 | 25 | 1006.5 |
| 20260504185927 | 25 | 186 | 8.0 | 19.3 | 0.00 | 0.00 | 0.00 | 25 | 1006.5 |
| 20260504185422 | 25 | 238 | 9.7 | 19.3 | 0.00 | 0.00 | 0.00 | 24 | 1006.6 |
| 20260504185132 | 25 | 228 | 9.7 | 19.3 | 0.00 | 0.00 | 0.00 | 26 | 1006.8 |
| 20260504184958 | 25 | 258 | 8.0 | 16.1 | 0.00 | 0.00 | 0.00 | 26 | 1006.8 |
| 20260504183922 | 25 | 332 | 11.3 | 22.5 | 0.00 | 0.00 | 0.00 | 27 | 1006.8 |
| 20260504183419 | 25 | 151 | 12.9 | 25.7 | 0.00 | 0.00 | 0.00 | 26 | 1006.9 |
| 20260504182917 | 25 | 155 | 9.7 | 25.7 | 0.00 | 0.00 | 0.00 | 27 | 1006.9 |
| 20260504182816 | 25 | 227 | 11.3 | 25.7 | 0.00 | 0.00 | 0.00 | 30 | 1007.0 |
| 20260504182613 | 25 | 175 | 9.7 | 25.7 | 0.00 | 0.00 | 0.00 | 28 | 1007.0 |
| 20260504181413 | 25 | 244 | 9.7 | 19.3 | 0.00 | 0.00 | 0.00 | 28 | 1007.0 |
| 20260504180912 | 25 | 167 | 11.3 | 19.3 | 0.00 | 0.00 | 0.00 | 26 | 1007.2 |
| 20260504180412 | 24 | 176 | 11.3 | 25.7 | 0.00 | 0.00 | 0.00 | 28 | 1007.2 |
| 20260504175911 | 25 | 170 | 11.3 | 25.7 | 0.00 | 0.00 | 0.00 | 28 | 1007.2 |
| 20260504175413 | 24 | 164 | 12.9 | 32.2 | 0.00 | 0.00 | 0.00 | 29 | 1007.2 |
| 20260504174910 | 24 | 177 | 12.9 | 32.2 | 0.00 | 0.00 | 0.00 | 27 | 1007.3 |
| 20260504174411 | 24 | 119 | 11.3 | 29.0 | 0.00 | 0.00 | 0.00 | 31 | 1007.3 |
| 20260504173913 | 24 | 207 | 12.9 | 24.1 | 0.00 | 0.00 | 0.00 | 28 | 1007.4 |
| 20260504173702 | 23 | 211 | 11.3 | 24.1 | 0.00 | 0.00 | 0.00 | 30 | 1007.4 |
| 20260504173641 | 23 | 204 | 11.3 | 27.4 | 0.00 | 0.00 | 0.00 | 30 | 1007.7 |
| 20260504173456 | 23 | 140 | 12.9 | 24.1 | 0.00 | 0.00 | 0.00 | 29 | 1007.4 |
| 20260504171925 | 23 | 232 | 12.9 | 27.4 | 0.00 | 0.00 | 0.00 | 34 | 1007.6 |
| 20260504171421 | 23 | 187 | 12.9 | 25.7 | 0.00 | 0.00 | 0.00 | 30 | 1007.6 |
| 20260504171001 | 23 | 148 | 11.3 | 24.1 | 0.00 | 0.00 | 0.00 | 33 | 1007.6 |
| 20260504170929 | 23 | 213 | 12.9 | 24.1 | 0.00 | 0.00 | 0.00 | 32 | 1007.7 |
| 20260504160403 | 20 | 199 | 4.8 | 9.7 | 0.00 | 0.00 | 0.00 | 37 | 1007.7 |
| 20260504151042 | 16 | 204 | 6.4 | 14.5 | 0.00 | 0.00 | 0.00 | 45 | 1008.2 |